Time,TemperatureF,DewpointF,PressureIn,WindDirection,WindDirectionDegrees,WindSpeedMPH,WindSpeedGustMPH,Humidity,HourlyPrecipIn,Conditions,Clouds,dailyrainin,SoftwareType,DateUTC
2013-09-07 00:00:00,63.8,62.6,30.14,SE,127,0.0,0.0,96,0.00,,,0.00,Wunderground v.1.15,2013-09-07 04:00:00,
2013-09-07 00:10:00,63.8,62.6,30.14,SE,127,0.0,0.0,96,0.00,,,0.00,Wunderground v.1.15,2013-09-07 04:10:00,
2013-09-07 00:20:00,63.6,62.4,30.14,SE,127,0.0,0.0,96,0.00,,,0.00,Wunderground v.1.15,2013-09-07 04:20:00,
2013-09-07 00:25:00,63.6,62.7,30.14,SE,127,0.0,0.0,97,0.00,,,0.00,Wunderground v.1.15,2013-09-07 04:25:00,
2013-09-07 00:30:00,63.6,62.7,30.14,SE,127,0.0,0.0,97,0.00,,,0.00,Wunderground v.1.15,2013-09-07 04:30:00,
2013-09-07 00:40:00,63.5,62.6,30.13,SE,127,0.0,0.0,97,0.00,,,0.00,Wunderground v.1.15,2013-09-07 04:40:00,
2013-09-07 00:45:00,63.4,62.5,30.14,SE,127,0.0,0.0,97,0.00,,,0.00,Wunderground v.1.15,2013-09-07 04:45:00,
2013-09-07 00:50:00,63.3,62.4,30.13,SE,127,0.0,0.0,97,0.00,,,0.00,Wunderground v.1.15,2013-09-07 04:50:00,
2013-09-07 01:11:00,62.9,62.0,30.14,SE,127,0.0,0.0,97,0.00,,,0.00,Wunderground v.1.15,2013-09-07 05:11:00,
2013-09-07 01:20:00,62.7,61.8,30.14,SE,127,0.0,0.0,97,0.00,,,0.00,Wunderground v.1.15,2013-09-07 05:20:00,
2013-09-07 01:25:00,62.6,61.7,30.13,SE,127,0.0,0.0,97,0.00,,,0.00,Wunderground v.1.15,2013-09-07 05:25:00,
2013-09-07 01:30:00,62.6,61.7,30.13,SE,127,0.0,0.0,97,0.00,,,0.00,Wunderground v.1.15,2013-09-07 05:30:00,
2013-09-07 01:40:00,62.5,61.6,30.13,SE,127,0.0,0.0,97,0.00,,,0.00,Wunderground v.1.15,2013-09-07 05:40:00,
2013-09-07 01:55:00,62.1,61.2,30.13,SE,127,0.0,0.0,97,0.00,,,0.00,Wunderground v.1.15,2013-09-07 05:55:00,
2013-09-07 02:20:00,61.5,60.6,30.13,SE,127,0.0,0.0,97,0.00,,,0.00,Wunderground v.1.15,2013-09-07 06:20:00,
2013-09-07 02:25:00,61.4,60.8,30.12,SE,127,0.0,0.0,98,0.00,,,0.00,Wunderground v.1.15,2013-09-07 06:25:00,
2013-09-07 02:40:00,61.1,60.2,30.12,SE,127,0.0,0.0,97,0.00,,,0.00,Wunderground v.1.15,2013-09-07 06:40:00,
2013-09-07 02:55:00,60.7,59.8,30.12,SE,127,0.0,0.0,97,0.00,,,0.00,Wunderground v.1.15,2013-09-07 06:55:00,
2013-09-07 03:00:00,60.6,59.7,30.12,SE,127,0.0,0.0,97,0.00,,,0.00,Wunderground v.1.15,2013-09-07 07:00:00,
2013-09-07 03:11:00,60.4,59.8,30.11,SE,127,0.0,0.0,98,0.00,,,0.00,Wunderground v.1.15,2013-09-07 07:11:00,
2013-09-07 03:16:00,60.2,59.6,30.11,SE,127,0.0,0.0,98,0.00,,,0.00,Wunderground v.1.15,2013-09-07 07:16:00,
2013-09-07 03:21:00,60.2,59.6,30.11,SE,127,0.0,0.0,98,0.00,,,0.00,Wunderground v.1.15,2013-09-07 07:21:00,
2013-09-07 03:30:00,59.9,59.3,30.11,SE,127,0.0,0.0,98,0.00,,,0.00,Wunderground v.1.15,2013-09-07 07:30:00,
2013-09-07 03:35:00,59.8,59.2,30.11,SE,127,0.0,0.0,98,0.00,,,0.00,Wunderground v.1.15,2013-09-07 07:35:00,
2013-09-07 03:40:00,59.7,59.1,30.11,SE,127,0.0,0.0,98,0.00,,,0.00,Wunderground v.1.15,2013-09-07 07:40:00,
2013-09-07 04:00:00,59.5,58.9,30.12,SE,127,0.0,0.0,98,0.00,,,0.00,Wunderground v.1.15,2013-09-07 08:00:00,
2013-09-07 04:15:00,59.1,58.5,30.12,SE,127,0.0,0.0,98,0.00,,,0.00,Wunderground v.1.15,2013-09-07 08:15:00,
2013-09-07 04:20:00,59.0,58.4,30.12,SE,127,0.0,0.0,98,0.00,,,0.00,Wunderground v.1.15,2013-09-07 08:20:00,
2013-09-07 04:25:00,59.0,58.4,30.12,SE,127,0.0,0.0,98,0.00,,,0.00,Wunderground v.1.15,2013-09-07 08:25:00,
2013-09-07 04:31:00,59.0,58.4,30.12,SE,127,0.0,0.0,98,0.00,,,0.00,Wunderground v.1.15,2013-09-07 08:31:00,
2013-09-07 04:45:00,58.8,58.2,30.12,SE,127,0.0,0.0,98,0.00,,,0.00,Wunderground v.1.15,2013-09-07 08:45:00,
2013-09-07 04:55:00,58.6,58.0,30.12,SE,127,0.0,0.0,98,0.00,,,0.00,Wunderground v.1.15,2013-09-07 08:55:00,
2013-09-07 05:15:00,58.2,57.6,30.12,SE,127,0.0,0.0,98,0.00,,,0.00,Wunderground v.1.15,2013-09-07 09:15:00,
2013-09-07 05:20:00,58.1,57.5,30.12,SE,127,0.0,0.0,98,0.00,,,0.00,Wunderground v.1.15,2013-09-07 09:20:00,
2013-09-07 05:45:00,57.8,57.2,30.12,SE,127,0.0,0.0,98,0.00,,,0.00,Wunderground v.1.15,2013-09-07 09:45:00,
2013-09-07 05:50:00,57.7,57.1,30.12,SE,127,0.0,0.0,98,0.00,,,0.00,Wunderground v.1.15,2013-09-07 09:50:00,
2013-09-07 06:00:00,57.5,56.9,30.12,SE,127,0.0,0.0,98,0.00,,,0.00,Wunderground v.1.15,2013-09-07 10:00:00,
2013-09-07 06:06:00,57.5,56.9,30.12,SE,127,0.0,0.0,98,0.00,,,0.00,Wunderground v.1.15,2013-09-07 10:06:00,
2013-09-07 06:20:00,57.3,56.7,30.12,SE,127,0.0,0.0,98,0.00,,,0.00,Wunderground v.1.15,2013-09-07 10:20:00,
2013-09-07 06:25:00,57.2,56.6,30.13,SE,127,0.0,0.0,98,0.00,,,0.00,Wunderground v.1.15,2013-09-07 10:25:00,
2013-09-07 06:45:00,57.1,56.5,30.13,SE,127,0.0,0.0,98,0.00,,,0.00,Wunderground v.1.15,2013-09-07 10:45:00,
2013-09-07 06:55:00,57.0,56.4,30.13,SE,127,0.0,0.0,98,0.00,,,0.00,Wunderground v.1.15,2013-09-07 10:55:00,
2013-09-07 07:00:00,56.9,56.3,30.13,SE,127,0.0,0.0,98,0.00,,,0.00,Wunderground v.1.15,2013-09-07 11:00:00,
2013-09-07 07:05:00,56.9,56.3,30.14,SE,127,0.0,0.0,98,0.00,,,0.00,Wunderground v.1.15,2013-09-07 11:05:00,
2013-09-07 07:15:00,56.9,56.6,30.14,SE,127,0.0,0.0,99,0.00,,,0.00,Wunderground v.1.15,2013-09-07 11:15:00,
2013-09-07 07:20:00,56.9,56.6,30.14,SE,127,0.0,0.0,99,0.00,,,0.00,Wunderground v.1.15,2013-09-07 11:20:00,
2013-09-07 07:25:00,56.9,56.6,30.14,SE,127,0.0,0.0,99,0.00,,,0.00,Wunderground v.1.15,2013-09-07 11:25:00,
2013-09-07 07:35:00,57.0,56.7,30.15,SE,127,0.0,0.0,99,0.00,,,0.00,Wunderground v.1.15,2013-09-07 11:35:00,
2013-09-07 07:40:00,57.1,56.8,30.15,SE,127,0.0,0.0,99,0.00,,,0.00,Wunderground v.1.15,2013-09-07 11:40:00,
2013-09-07 08:10:00,57.8,57.5,30.14,SE,127,0.0,0.0,99,0.00,,,0.00,Wunderground v.1.15,2013-09-07 12:10:00,
2013-09-07 08:25:00,59.0,59.0,30.14,SE,127,0.0,0.0,100,0.00,,,0.00,Wunderground v.1.15,2013-09-07 12:25:00,
2013-09-07 08:30:00,59.4,59.4,30.14,SE,127,0.0,0.0,100,0.00,,,0.00,Wunderground v.1.15,2013-09-07 12:30:00,
2013-09-07 08:40:00,60.2,60.2,30.14,SE,127,0.0,0.0,100,0.00,,,0.00,Wunderground v.1.15,2013-09-07 12:40:00,
2013-09-07 08:45:00,60.7,60.7,30.14,SE,127,0.0,0.0,100,0.00,,,0.00,Wunderground v.1.15,2013-09-07 12:45:00,
2013-09-07 08:50:00,61.1,61.1,30.13,SE,127,0.0,0.0,100,0.00,,,0.00,Wunderground v.1.15,2013-09-07 12:50:00,
2013-09-07 09:15:00,62.1,62.1,30.13,SE,127,0.0,0.0,100,0.00,,,0.00,Wunderground v.1.15,2013-09-07 13:15:00,
2013-09-07 09:20:00,62.2,62.2,30.13,SE,127,0.0,0.0,100,0.00,,,0.00,Wunderground v.1.15,2013-09-07 13:20:00,
2013-09-07 09:26:00,62.3,62.3,30.13,SE,127,0.0,0.0,100,0.00,,,0.00,Wunderground v.1.15,2013-09-07 13:26:00,
2013-09-07 09:41:00,63.0,62.7,30.13,SE,127,0.0,0.0,99,0.00,,,0.00,Wunderground v.1.15,2013-09-07 13:41:00,
2013-09-07 09:46:00,63.3,63.0,30.13,SE,127,0.0,0.0,99,0.00,,,0.00,Wunderground v.1.15,2013-09-07 13:46:00,
2013-09-07 09:55:00,63.8,63.2,30.13,SE,127,0.0,0.0,98,0.00,,,0.00,Wunderground v.1.15,2013-09-07 13:55:00,
2013-09-07 10:00:00,64.1,63.5,30.13,SE,127,0.0,0.0,98,0.00,,,0.00,Wunderground v.1.15,2013-09-07 14:00:00,
2013-09-07 10:15:00,65.3,64.1,30.13,SE,127,0.0,0.0,96,0.00,,,0.00,Wunderground v.1.15,2013-09-07 14:15:00,
2013-09-07 10:25:00,66.1,64.3,30.13,SE,127,0.0,0.0,94,0.00,,,0.00,Wunderground v.1.15,2013-09-07 14:25:00,
2013-09-07 10:30:00,66.4,64.0,30.13,SE,127,0.0,0.0,92,0.00,,,0.00,Wunderground v.1.15,2013-09-07 14:30:00,
2013-09-07 10:45:00,67.9,64.5,30.13,SSW,205,0.0,0.0,89,0.00,,,0.00,Wunderground v.1.15,2013-09-07 14:45:00,
2013-09-07 10:55:00,68.5,64.5,30.13,SSW,205,0.0,0.0,87,0.00,,,0.00,Wunderground v.1.15,2013-09-07 14:55:00,
2013-09-07 11:00:00,68.9,63.9,30.13,WSW,242,0.0,0.0,84,0.00,,,0.00,Wunderground v.1.15,2013-09-07 15:00:00,
2013-09-07 11:06:00,69.4,64.0,30.13,WSW,242,0.0,0.0,83,0.00,,,0.00,Wunderground v.1.15,2013-09-07 15:06:00,
2013-09-07 11:15:00,70.3,64.2,30.13,WSW,242,0.0,0.0,81,0.00,,,0.00,Wunderground v.1.15,2013-09-07 15:15:00,
2013-09-07 11:21:00,70.9,64.1,30.13,WNW,287,0.0,0.0,79,0.00,,,0.00,Wunderground v.1.15,2013-09-07 15:21:00,
2013-09-07 11:30:00,71.4,63.4,30.12,WNW,286,0.0,0.0,76,0.00,,,0.00,Wunderground v.1.15,2013-09-07 15:30:00,
2013-09-07 11:41:00,72.2,64.2,30.12,West,280,0.0,0.0,76,0.00,,,0.00,Wunderground v.1.15,2013-09-07 15:41:00,
2013-09-07 11:50:00,73.0,64.2,30.12,West,280,0.0,1.0,74,0.00,,,0.00,Wunderground v.1.15,2013-09-07 15:50:00,
2013-09-07 11:55:00,73.4,64.2,30.11,West,280,0.0,2.0,73,0.00,,,0.00,Wunderground v.1.15,2013-09-07 15:55:00,
2013-09-07 12:11:00,74.5,64.5,30.11,West,277,0.0,0.0,71,0.00,,,0.00,Wunderground v.1.15,2013-09-07 16:11:00,
2013-09-07 12:25:00,75.3,64.0,30.10,West,277,0.0,0.0,68,0.00,,,0.00,Wunderground v.1.15,2013-09-07 16:25:00,
2013-09-07 12:30:00,75.6,63.9,30.10,West,277,0.0,0.0,67,0.00,,,0.00,Wunderground v.1.15,2013-09-07 16:30:00,
2013-09-07 12:40:00,76.5,64.3,30.10,WNW,288,0.0,2.0,66,0.00,,,0.00,Wunderground v.1.15,2013-09-07 16:40:00,
2013-09-07 12:55:00,77.9,66.1,30.09,West,273,0.0,0.0,67,0.00,,,0.00,Wunderground v.1.15,2013-09-07 16:55:00,
2013-09-07 13:05:00,78.4,66.1,30.09,SW,215,0.0,1.0,66,0.00,,,0.00,Wunderground v.1.15,2013-09-07 17:05:00,
2013-09-07 13:15:00,78.5,65.3,30.09,SW,218,0.0,0.0,64,0.00,,,0.00,Wunderground v.1.15,2013-09-07 17:15:00,
2013-09-07 13:20:00,78.6,64.5,30.09,WNW,288,0.0,2.0,62,0.00,,,0.00,Wunderground v.1.15,2013-09-07 17:20:00,
2013-09-07 13:35:00,79.2,64.6,30.08,SW,215,0.0,2.0,61,0.00,,,0.00,Wunderground v.1.15,2013-09-07 17:35:00,
2013-09-07 13:40:00,79.4,65.2,30.08,South,171,0.0,2.0,62,0.00,,,0.00,Wunderground v.1.15,2013-09-07 17:40:00,
2013-09-07 13:50:00,79.5,64.4,30.08,East,90,0.0,0.0,60,0.00,,,0.00,Wunderground v.1.15,2013-09-07 17:50:00,
2013-09-07 14:00:00,79.6,63.5,30.07,SSW,200,0.0,0.0,58,0.00,,,0.00,Wunderground v.1.15,2013-09-07 18:00:00,
2013-09-07 14:15:00,80.2,65.1,30.06,West,265,0.0,0.0,60,0.00,,,0.00,Wunderground v.1.15,2013-09-07 18:15:00,
2013-09-07 14:26:00,80.5,66.7,30.06,West,265,0.0,0.0,63,0.00,,,0.00,Wunderground v.1.15,2013-09-07 18:26:00,
2013-09-07 14:35:00,81.1,65.4,30.06,SSE,160,1.0,1.0,59,0.00,,,0.00,Wunderground v.1.15,2013-09-07 18:35:00,
2013-09-07 14:45:00,80.3,66.6,30.05,WSW,244,0.0,1.0,63,0.00,,,0.00,Wunderground v.1.15,2013-09-07 18:45:00,
2013-09-07 14:50:00,80.4,67.1,30.05,WNW,303,0.0,2.0,64,0.00,,,0.00,Wunderground v.1.15,2013-09-07 18:50:00,
2013-09-07 15:05:00,80.8,67.0,30.04,West,280,0.0,0.0,63,0.00,,,0.00,Wunderground v.1.15,2013-09-07 19:05:00,
2013-09-07 15:15:00,81.3,68.0,30.04,West,277,0.0,0.0,64,0.00,,,0.00,Wunderground v.1.15,2013-09-07 19:15:00,
2013-09-07 15:20:00,81.7,67.9,30.04,NW,310,0.0,0.0,63,0.00,,,0.00,Wunderground v.1.15,2013-09-07 19:20:00,
2013-09-07 15:26:00,81.6,67.8,30.03,SSE,165,0.0,0.0,63,0.00,,,0.00,Wunderground v.1.15,2013-09-07 19:26:00,
2013-09-07 15:40:00,81.8,67.5,30.03,WNW,285,1.0,1.0,62,0.00,,,0.00,Wunderground v.1.15,2013-09-07 19:40:00,
2013-09-07 15:45:00,81.8,67.0,30.02,WSW,258,1.0,1.0,61,0.00,,,0.00,Wunderground v.1.15,2013-09-07 19:45:00,
2013-09-07 15:50:00,81.6,68.2,30.02,WSW,258,0.0,0.0,64,0.00,,,0.00,Wunderground v.1.15,2013-09-07 19:50:00,
2013-09-07 16:20:00,82.3,67.5,30.01,SW,225,1.0,1.0,61,0.00,,,0.00,Wunderground v.1.15,2013-09-07 20:20:00,
2013-09-07 16:25:00,82.5,66.7,30.01,SSW,196,1.0,2.0,59,0.00,,,0.00,Wunderground v.1.15,2013-09-07 20:25:00,
2013-09-07 16:45:00,82.1,67.3,30.01,SSW,200,0.0,0.0,61,0.00,,,0.00,Wunderground v.1.15,2013-09-07 20:45:00,
2013-09-07 17:00:00,82.1,67.3,30.00,SSW,197,0.0,0.0,61,0.00,,,0.00,Wunderground v.1.15,2013-09-07 21:00:00,
2013-09-07 17:25:00,83.1,68.3,30.00,WSW,240,0.0,0.0,61,0.00,,,0.00,Wunderground v.1.15,2013-09-07 21:25:00,
2013-09-07 17:35:00,83.3,68.0,30.00,West,265,0.0,0.0,60,0.00,,,0.00,Wunderground v.1.15,2013-09-07 21:35:00,
2013-09-07 17:45:00,82.9,71.3,30.00,NW,326,0.0,0.0,68,0.00,,,0.00,Wunderground v.1.15,2013-09-07 21:45:00,
2013-09-07 17:50:00,83.1,68.7,30.00,NW,325,0.0,0.0,62,0.00,,,0.00,Wunderground v.1.15,2013-09-07 21:50:00,
2013-09-07 18:00:00,83.6,70.1,30.00,WSW,254,0.0,0.0,64,0.00,,,0.00,Wunderground v.1.15,2013-09-07 22:00:00,
2013-09-07 18:10:00,83.5,72.3,29.99,WSW,254,0.0,0.0,69,0.00,,,0.00,Wunderground v.1.15,2013-09-07 22:10:00,
2013-09-07 18:15:00,83.5,70.9,29.99,WSW,254,0.0,0.0,66,0.00,,,0.00,Wunderground v.1.15,2013-09-07 22:15:00,
2013-09-07 18:45:00,78.3,70.1,29.99,WSW,254,0.0,0.0,76,0.00,,,0.00,Wunderground v.1.15,2013-09-07 22:45:00,
2013-09-07 18:50:00,77.4,70.0,29.99,WSW,254,0.0,0.0,78,0.00,,,0.00,Wunderground v.1.15,2013-09-07 22:50:00,
2013-09-07 18:56:00,76.6,70.0,29.99,WSW,254,0.0,0.0,80,0.00,,,0.00,Wunderground v.1.15,2013-09-07 22:56:00,
2013-09-07 19:01:00,75.9,69.6,29.99,WSW,254,0.0,0.0,81,0.00,,,0.00,Wunderground v.1.15,2013-09-07 23:01:00,
2013-09-07 19:15:00,74.8,69.6,29.99,WSW,254,0.0,0.0,84,0.00,,,0.00,Wunderground v.1.15,2013-09-07 23:15:00,
2013-09-07 19:20:00,74.2,69.1,29.99,WSW,254,0.0,0.0,84,0.00,,,0.00,Wunderground v.1.15,2013-09-07 23:20:00,
2013-09-07 19:35:00,73.2,68.8,29.99,WSW,254,0.0,0.0,86,0.00,,,0.00,Wunderground v.1.15,2013-09-07 23:35:00,
2013-09-07 19:45:00,72.7,68.9,29.99,WSW,254,0.0,0.0,88,0.00,,,0.00,Wunderground v.1.15,2013-09-07 23:45:00,
2013-09-07 19:50:00,72.4,68.6,29.99,WSW,254,0.0,0.0,88,0.00,,,0.00,Wunderground v.1.15,2013-09-07 23:50:00,
2013-09-07 19:55:00,72.2,68.4,29.99,WSW,254,0.0,0.0,88,0.00,,,0.00,Wunderground v.1.15,2013-09-07 23:55:00,
2013-09-07 20:15:00,71.2,68.1,29.99,WSW,254,0.0,0.0,90,0.00,,,0.00,Wunderground v.1.15,2013-09-08 00:15:00,
2013-09-07 20:20:00,70.9,67.8,29.99,WSW,254,0.0,0.0,90,0.00,,,0.00,Wunderground v.1.15,2013-09-08 00:20:00,
2013-09-07 20:35:00,70.2,67.4,30.00,WSW,254,0.0,0.0,91,0.00,,,0.00,Wunderground v.1.15,2013-09-08 00:35:00,
2013-09-07 20:51:00,69.5,67.1,30.00,WSW,254,0.0,0.0,92,0.00,,,0.00,Wunderground v.1.15,2013-09-08 00:51:00,
2013-09-07 21:06:00,68.9,66.8,30.00,WSW,254,0.0,0.0,93,0.00,,,0.00,Wunderground v.1.15,2013-09-08 01:06:00,
2013-09-07 21:20:00,68.4,66.3,30.00,WSW,254,0.0,0.0,93,0.00,,,0.00,Wunderground v.1.15,2013-09-08 01:20:00,
2013-09-07 21:30:00,68.0,66.2,30.00,WSW,254,0.0,0.0,94,0.00,,,0.00,Wunderground v.1.15,2013-09-08 01:30:00,
2013-09-07 21:35:00,67.9,66.1,30.00,WSW,254,0.0,0.0,94,0.00,,,0.00,Wunderground v.1.15,2013-09-08 01:35:00,
2013-09-07 21:40:00,67.7,65.9,30.00,WSW,254,0.0,0.0,94,0.00,,,0.00,Wunderground v.1.15,2013-09-08 01:40:00,
2013-09-07 22:10:00,66.8,65.3,30.00,WSW,254,0.0,0.0,95,0.00,,,0.00,Wunderground v.1.15,2013-09-08 02:10:00,
2013-09-07 22:15:00,66.7,65.2,30.00,WSW,254,0.0,0.0,95,0.00,,,0.00,Wunderground v.1.15,2013-09-08 02:15:00,
2013-09-07 22:20:00,66.5,65.0,30.00,WSW,254,0.0,0.0,95,0.00,,,0.00,Wunderground v.1.15,2013-09-08 02:20:00,
2013-09-07 22:26:00,66.4,64.9,30.00,WSW,254,0.0,0.0,95,0.00,,,0.00,Wunderground v.1.15,2013-09-08 02:26:00,
2013-09-07 22:45:00,65.9,64.4,30.00,WSW,254,0.0,0.0,95,0.00,,,0.00,Wunderground v.1.15,2013-09-08 02:45:00,
2013-09-07 22:50:00,65.8,64.6,30.00,WSW,254,0.0,0.0,96,0.00,,,0.00,Wunderground v.1.15,2013-09-08 02:50:00,
2013-09-07 22:55:00,65.7,64.5,30.00,WSW,254,0.0,0.0,96,0.00,,,0.00,Wunderground v.1.15,2013-09-08 02:55:00,
2013-09-07 23:10:00,65.3,64.1,30.00,WSW,254,0.0,0.0,96,0.00,,,0.00,Wunderground v.1.15,2013-09-08 03:10:00,
2013-09-07 23:15:00,65.2,64.0,29.99,WSW,254,0.0,0.0,96,0.00,,,0.00,Wunderground v.1.15,2013-09-08 03:15:00,
2013-09-07 23:20:00,65.1,63.9,30.00,WSW,254,0.0,0.0,96,0.00,,,0.00,Wunderground v.1.15,2013-09-08 03:20:00,
2013-09-07 23:30:00,64.9,63.7,29.99,WSW,254,0.0,0.0,96,0.00,,,0.00,Wunderground v.1.15,2013-09-08 03:30:00,
2013-09-07 23:50:00,64.5,63.6,29.99,WSW,254,0.0,0.0,97,0.00,,,0.00,Wunderground v.1.15,2013-09-08 03:50:00,